TimeMDT,TemperatureF,Dew PointF,Humidity,Sea Level PressureIn,VisibilityMPH,Wind Direction,Wind SpeedMPH,Gust SpeedMPH,PrecipitationIn,Events,Conditions,WindDirDegrees,DateUTC
12:03 AM,41.0,5.0,23,30.03,10.0,SW,15.0,21.9,N/A,,Scattered Clouds,230,2012-10-05 06:03:00
12:23 AM,41.0,3.2,21,30.03,10.0,WSW,15.0,-,N/A,,Overcast,250,2012-10-05 06:23:00
12:43 AM,41.0,3.2,21,30.02,10.0,WSW,13.8,-,N/A,,Scattered Clouds,240,2012-10-05 06:43:00
1:02 AM,41.0,5.0,23,30.03,10.0,WSW,12.7,-,N/A,,Scattered Clouds,250,2012-10-05 07:02:00
1:25 AM,41.0,5.0,23,30.03,10.0,West,11.5,17.3,N/A,,Overcast,280,2012-10-05 07:25:00
1:45 AM,39.2,5.0,24,30.03,10.0,West,9.2,16.1,N/A,,Overcast,280,2012-10-05 07:45:00
2:05 AM,39.2,12.2,33,30.03,10.0,West,21.9,33.4,N/A,,Overcast,270,2012-10-05 08:05:00
2:24 AM,37.4,14.0,38,30.03,10.0,WNW,11.5,21.9,N/A,,Overcast,290,2012-10-05 08:24:00
2:45 AM,35.6,17.6,48,30.02,10.0,NW,15.0,20.7,N/A,,Overcast,310,2012-10-05 08:45:00
3:05 AM,35.6,23.0,60,30.03,5.0,WNW,19.6,24.2,N/A,Snow,Light Snow,300,2012-10-05 09:05:00
3:24 AM,33.8,28.4,81,30.02,1.5,WSW,16.1,31.1,N/A,Snow,Light Snow,250,2012-10-05 09:24:00
3:44 AM,33.8,26.6,75,30.03,2.0,WSW,17.3,35.7,N/A,Snow,Light Snow,250,2012-10-05 09:44:00
4:03 AM,33.8,26.6,75,30.01,10.0,SSW,13.8,19.6,N/A,,Overcast,200,2012-10-05 10:03:00
4:24 AM,33.8,21.2,60,29.99,10.0,WSW,15.0,21.9,N/A,,Overcast,240,2012-10-05 10:24:00
4:45 AM,33.8,21.2,60,30.00,10.0,WSW,16.1,20.7,N/A,,Overcast,240,2012-10-05 10:45:00
5:04 AM,33.8,23.0,65,30.00,10.0,WSW,15.0,20.7,N/A,,Overcast,240,2012-10-05 11:04:00
5:22 AM,33.8,21.2,60,30.00,10.0,West,13.8,21.9,N/A,,Overcast,260,2012-10-05 11:22:00
5:43 AM,32.0,21.2,64,30.00,10.0,West,13.8,18.4,N/A,,Scattered Clouds,260,2012-10-05 11:43:00
6:03 AM,32.0,21.2,64,30.01,10.0,West,13.8,20.7,N/A,,Clear,280,2012-10-05 12:03:00
6:24 AM,32.0,14.0,48,30.02,10.0,West,12.7,23.0,N/A,,Clear,280,2012-10-05 12:24:00
6:43 AM,32.0,12.2,44,30.03,10.0,West,15.0,20.7,N/A,,Clear,270,2012-10-05 12:43:00
7:03 AM,30.2,14.0,51,30.04,10.0,West,11.5,16.1,N/A,,Clear,280,2012-10-05 13:03:00
7:23 AM,30.2,12.2,47,30.04,10.0,West,11.5,20.7,N/A,,Clear,260,2012-10-05 13:23:00
7:43 AM,30.2,12.2,47,30.05,10.0,West,10.4,16.1,N/A,,Clear,280,2012-10-05 13:43:00
8:02 AM,30.2,12.2,47,30.05,10.0,West,9.2,-,N/A,,Scattered Clouds,270,2012-10-05 14:02:00
8:23 AM,30.2,12.2,47,30.06,10.0,West,10.4,-,N/A,,Scattered Clouds,260,2012-10-05 14:23:00
8:43 AM,30.2,12.2,47,30.06,10.0,WSW,10.4,-,N/A,,Clear,250,2012-10-05 14:43:00
9:02 AM,30.2,10.4,44,30.06,10.0,WSW,16.1,21.9,N/A,,Clear,250,2012-10-05 15:02:00
9:23 AM,30.2,10.4,44,30.07,10.0,West,11.5,18.4,N/A,,Clear,270,2012-10-05 15:23:00
9:41 AM,32.0,12.2,44,30.07,10.0,West,12.7,18.4,N/A,,Clear,270,2012-10-05 15:41:00
10:03 AM,32.0,10.4,41,30.08,10.0,West,12.7,19.6,N/A,,Clear,280,2012-10-05 16:03:00
10:22 AM,32.0,8.6,38,30.08,10.0,West,13.8,20.7,N/A,,Clear,270,2012-10-05 16:22:00
11:02 AM,32.0,12.2,44,30.09,10.0,WNW,9.2,16.1,N/A,,Clear,290,2012-10-05 17:02:00
11:22 AM,33.8,12.2,41,30.10,10.0,West,5.8,-,N/A,,Clear,280,2012-10-05 17:22:00
11:43 AM,35.6,6.8,30,30.10,10.0,West,10.4,17.3,N/A,,Clear,260,2012-10-05 17:43:00
12:24 PM,35.6,-5.8,17,30.10,10.0,WSW,10.4,20.7,N/A,,Clear,240,2012-10-05 18:24:00
12:44 PM,33.8,-0.4,23,30.10,10.0,West,9.2,19.6,N/A,,Clear,280,2012-10-05 18:44:00
1:03 PM,33.8,-4.0,20,30.09,10.0,West,12.7,19.6,N/A,,Clear,280,2012-10-05 19:03:00
1:23 PM,33.8,-2.2,22,30.08,10.0,WNW,13.8,24.2,N/A,,Clear,290,2012-10-05 19:23:00
1:44 PM,35.6,-0.4,22,30.08,10.0,West,13.8,20.7,N/A,,Clear,280,2012-10-05 19:44:00
2:04 PM,33.8,3.2,28,30.08,10.0,West,11.5,25.3,N/A,,Clear,270,2012-10-05 20:04:00
2:25 PM,33.8,5.0,30,30.07,10.0,West,19.6,28.8,N/A,,Mostly Cloudy,280,2012-10-05 20:25:00
2:44 PM,33.8,8.6,35,30.06,10.0,West,15.0,24.2,N/A,,Mostly Cloudy,280,2012-10-05 20:44:00
3:03 PM,33.8,8.6,35,30.06,10.0,WNW,16.1,26.5,N/A,,Mostly Cloudy,290,2012-10-05 21:03:00
3:24 PM,33.8,8.6,35,30.06,10.0,WNW,13.8,23.0,N/A,,Mostly Cloudy,290,2012-10-05 21:24:00
3:44 PM,33.8,5.0,30,30.06,10.0,WNW,17.3,24.2,N/A,,Mostly Cloudy,290,2012-10-05 21:44:00
4:05 PM,33.8,3.2,28,30.06,10.0,WNW,13.8,20.7,N/A,,Mostly Cloudy,290,2012-10-05 22:05:00
4:25 PM,33.8,1.4,25,30.05,10.0,WNW,11.5,20.7,N/A,,Scattered Clouds,290,2012-10-05 22:25:00
4:46 PM,33.8,1.4,25,30.05,10.0,WNW,11.5,17.3,N/A,,Clear,290,2012-10-05 22:46:00
5:05 PM,33.8,-0.4,23,30.05,10.0,WNW,13.8,18.4,N/A,,Clear,290,2012-10-05 23:05:00
5:25 PM,33.8,-0.4,23,30.04,10.0,WNW,13.8,20.7,N/A,,Clear,290,2012-10-05 23:25:00
5:44 PM,33.8,-0.4,23,30.05,10.0,West,13.8,20.7,N/A,,Clear,280,2012-10-05 23:44:00
6:04 PM,33.8,-0.4,23,30.05,10.0,West,12.7,18.4,N/A,,Clear,280,2012-10-06 00:04:00
6:24 PM,33.8,1.4,25,30.04,10.0,WNW,13.8,-,N/A,,Clear,290,2012-10-06 00:24:00
6:44 PM,32.0,1.4,27,30.05,10.0,WNW,11.5,17.3,N/A,,Clear,300,2012-10-06 00:44:00
7:05 PM,32.0,-0.4,25,30.05,10.0,West,8.1,-,N/A,,Clear,280,2012-10-06 01:05:00
7:24 PM,32.0,-0.4,25,30.05,10.0,West,9.2,-,N/A,,Clear,280,2012-10-06 01:24:00
7:45 PM,32.0,-0.4,25,30.05,10.0,WNW,10.4,-,N/A,,Clear,300,2012-10-06 01:45:00
8:04 PM,32.0,1.4,27,30.04,10.0,WNW,10.4,-,N/A,,Clear,300,2012-10-06 02:04:00
8:24 PM,32.0,1.4,27,30.04,10.0,WNW,10.4,-,N/A,,Clear,290,2012-10-06 02:24:00
8:45 PM,32.0,1.4,27,30.04,10.0,WNW,10.4,-,N/A,,Clear,290,2012-10-06 02:45:00
9:05 PM,32.0,3.2,30,30.03,10.0,WNW,10.4,-,N/A,,Clear,300,2012-10-06 03:05:00
9:25 PM,32.0,1.4,27,30.03,10.0,WNW,9.2,-,N/A,,Clear,300,2012-10-06 03:25:00
9:43 PM,32.0,1.4,27,30.03,10.0,West,10.4,-,N/A,,Clear,280,2012-10-06 03:43:00
10:04 PM,32.0,1.4,27,30.01,10.0,West,12.7,17.3,N/A,,Clear,270,2012-10-06 04:04:00
10:25 PM,32.0,1.4,27,30.01,10.0,West,12.7,19.6,N/A,,Clear,260,2012-10-06 04:25:00
10:45 PM,32.0,3.2,30,30.01,10.0,WSW,15.0,19.6,N/A,,Clear,250,2012-10-06 04:45:00
11:04 PM,32.0,3.2,30,30.01,10.0,WSW,13.8,-,N/A,,Clear,250,2012-10-06 05:04:00
11:24 PM,32.0,3.2,30,30.01,10.0,WSW,10.4,-,N/A,,Clear,250,2012-10-06 05:24:00
11:44 PM,32.0,3.2,30,30.01,10.0,WSW,12.7,-,N/A,,Clear,250,2012-10-06 05:44:00